星链-1014 (STARLINK-1014 )

导读 | 豆包AI

STARLINK-1014是美国SpaceX星链星座中的一颗卫星,于2019年11月11日发射升空,属于星链项目早期部署的卫星之一。它旨在为全球提供低延迟、高速率的宽带互联网服务,依托近地轨道运行,是SpaceX构建全球卫星互联网星座计划的重要组成部分,助力实现全球网络覆盖目标。

Basic Information
目录编号:
44720
目录名称:
STARLINK-1014
国际标识:
2019-074H
轨道中心:
EARTH
卫星名称:
星链-1014
卫星全名:
星链-1014 (STARLINK-1014 )
卫星状态:
已陨落 最后检测时间 2025-07-15
发射日期:
2019-11-11 UTC
国别 :
美国 (US)
星等 :
--
Orbit Information
数据来源 国际轨道数据
星历时间: 2025-07-16T01:18:32+0800
轨道信息已过期241天
半长轴: 6531.458km
偏心率: 0.0009322
轨道倾角: 53.010°
近地点辐角 249.701°
升交点赤经 84.750°
平近点角 214.430°
近地点: 147.234km
远地点: 159.412km
周期: 87.554分钟
每日圈数: 16.447033
Detailed Information
固有亮度:
5
最大亮度:
2.5
卫星平台:
Starlink V1.0
覆盖范围:
全球
运营商:
太空探索技术公司
运营商所在国:
美国
制造商(研发单位):
太空探索技术公司
制造商所在国:
美国
使用方式:
暂无
Satellite Introduction
星链(Starlink)计划是由太空探索技术公司(SpaceX)提出的一个巨型低轨卫星互联网星座项目,计划在2019年至2024年间在太空搭建由约1.2万颗卫星组成的“星链”网络,其中1584颗将部署在地球上空550千米处的近地轨道,并从2020年开始工作。该卫星仍在工作。